Welcome to the New NWS' Forecast!
Most changes are behind the scenes, but click here for differences you might notice.

Regional Weather Roundup (RWR)

Issued by Gray - Portland, ME (GYX)

                            
375 
ASUS41 KGYX 132310
RWRGYX
WEATHER ROUNDUP FOR MAINE AND NEW HAMPSHIRE
NATIONAL WEATHER SERVICE GRAY ME
700 PM EDT MON AUG 13 2018

MEZ002-005-006-010-012-015-018-020-021-024-026-027-029-140000-
MAINE
  
CITY           SKY/WX    TMP DP  RH WIND       PRES   REMARKS
PORTLAND       FOG       66  65  96 E8        30.03F VSB 1            
SANFORD        CLOUDY    68  67  96 NE8       30.02F                  
BAR HARBOR     CLOUDY    69  65  86 VRB5      30.05F                  
WISCASSET      CLOUDY    71  68  90 CALM      30.04F                  
ROCKLAND       CLOUDY    68  66  93 E5        30.04F                  
FRYEBURG       CLOUDY    74  71  91 CALM      30.03F                  
LEWISTONAUBURN CLOUDY    73  69  87 CALM      30.03F                  
AUGUSTA        FAIR      74  67  78 SE7       30.04S                  
WATERVILLE     FAIR      73  68  84 CALM      30.00F                  
BANGOR         CLOUDY    73  67  81 S8        30.04F                  
GREENVILLE       N/A     72  67  84 SE6       30.04F                  
MILLINOCKET    FAIR      76  67  73 VRB5      30.03F                  
HOULTON        FAIR      76  69  79 S6        30.00F                  
PRESQUE ISLE   FAIR      78  65  63 S7        30.00F                  
FRENCHVILLE    FAIR      81  60  48 S5        29.99F                  
CARIBOU        FAIR      80  62  54 S6        29.98F                  
$$

NHZ002-005-008-009-011-012-014-140000-
NEW HAMPSHIRE
  
CITY           SKY/WX    TMP DP  RH WIND       PRES   REMARKS
PORTSMOUTH     CLOUDY    67  66  95 NE6       29.99F FOG              
ROCHESTER      CLOUDY    70  69  97 E6        30.01F                  
NASHUA         LGT RAIN  70  70 100 VRB7      29.99F                  
MANCHESTER     CLOUDY    71  69  93 NE8       29.98F                  
CONCORD        LGT RAIN  72  69  90 E3        30.01S                  
LACONIA        CLOUDY    72  68  87 NE7       30.02F                  
PLYMOUTH       CLOUDY    71  66  84 CALM      30.02S                  
BERLIN         FAIR      76  67  73 S6        30.03F                  
WHITEFIELD     FAIR      76  68  76 CALM      30.02F                  
JAFFREY        LGT RAIN  70  69  97 VRB3      30.01F                  
KEENE          LGT RAIN N/A N/A N/A NE6       29.98F                  
LEBANON        CLOUDY    73  66  78 NE6       30.00F                  
MT WASHINGTON  FOG       54  54 100 SE13        N/A  VSB 1/16         
$$

VTZ005-007-008-140000-
VERMONT
  
CITY           SKY/WX    TMP DP  RH WIND       PRES   REMARKS
ST JOHNSBURY     N/A     75  68  78 MISG      29.98F                  
MONTPELIER     FAIR      74  68  81 S6        30.06S                  
BURLINGTON     MOCLDY    81  65  58 S3        29.97F                  
$$

MAZ007-012-024-CTZ003-RIZ002-NYZ038-NYZ072-140000-
SOUTHERN NEW ENGLAND AND NY
  
CITY           SKY/WX    TMP DP  RH WIND       PRES   REMARKS
BOSTON         LGT RAIN  70  68  93 NE10      29.97F FOG              
WORCESTER      LGT RAIN  67  67 100 NE12G20   29.98F VSB 1/4          
NANTUCKET      FOG       68  68 100 E12       29.95F VSB 1/2          
PROVIDENCE     LGT RAIN  73  72  96 E8        29.94F FOG              
HARTFORD       LGT RAIN  71  70  96 N8        29.93F                  
ALBANY         LGT RAIN  74  68  81 N3        29.95F                  
NEW YORK CITY  MOCLDY    74  71  91 NE9       29.87F                  
$$

ANZ081-ANZ082-ANZ150-NHZ014-MEZ023>029-140000-
COASTAL MARINE OBSERVATIONS
  
STATION/POSITION TIME  TEMP    WIND        PRES    WAVE
                       AIR SEA DIR/SP/G            HT/PER
                 (UTC) (F)     (DEG/KT/KT) (MB)    (FT/S)
MOUNT DESERT ROC 2300   60      50/ 12/ 12 1017.3F
MATINICUS ROCK   2200   62      50/ 11/ 12 1017.0F
ISLE OF SHOALS   2200   65      30/ 13/ 15 1015.8F
JEFFREYS LEDGE   2236      72                N/A     2/ 8
$$

.............KEY..............
   WCI - WIND CHILL
   TC  - TEMPERATURE IN CELSIUS
   VSB - VISIBILITY IN MILES
   HX  - HEAT INDEX
   FAIR- INDICATES FEW OR NO CLOUDS BELOW 12,000 FT, WITH NO 
         SIGNIFICANT WEATHER AND/OR OBSTRUCTIONS TO VISIBILITY.